Regional Weather Roundup
Issued by NWS

Home | Current Version | Previous Version | Text Only | Print | Product List | Glossary On
Versions: 1 2 3 4 5 6 7 8 9 10 11 12 13 14 15 16 17 18 19 20 21 22 23 24 25 26 27 28 29 30 31 32 33 34 35 36 37 38 39 40 41 42 43 44 45 46 47 48 49 50
000
ASUS43 KLOT 220208
RWRIL

ILLINOIS REGIONAL WEATHER ROUNDUP
NATIONAL WEATHER SERVICE CHICAGO/ROMEOVILLE IL
900 PM CDT MON MAY 21 2018

NOTE: "FAIR" INDICATES FEW OR NO CLOUDS BELOW 12,000 FEET WITH NO
SIGNIFICANT WEATHER AND/OR OBSTRUCTIONS TO VISIBILITY.

* THESE STATIONS ARE NOT UNDER NWS QUALITY CONTROL. THEY ALSO MAY NOT
  REPORT WEATHER SUCH AS PRECIPITATION OR FOG.

ILZ001-002-007-009-015-016-024-220300-
NORTHWEST ILLINOIS

CITY           SKY/WX    TMP DP  RH WIND       PRES   REMARKS
MOLINE         FAIR      68  63  84 NW6       29.97R
SAVANNA*       MOCLDY    63  63  98 CALM      29.97F FOG
$$

ILZ003-004-008-010-011-017-018-220300-
NORTH CENTRAL ILLINOIS

CITY           SKY/WX    TMP DP  RH WIND       PRES   REMARKS
ROCKFORD       CLOUDY    59  58  96 NE8       29.99F FOG
FREEPORT*      CLOUDY    60  60 100 E3        30.00S FOG
ROCHELLE*      MOCLDY    62  62 100 N6        29.98F FOG
DE KALB*       CLOUDY    61  61 100 N5        29.99S FOG
PERU*          MOCLDY    71  67  87 E3        29.97R
$$

ILZ005-006-012>014-019>023-220300-
NORTHEAST ILLINOIS

CITY           SKY/WX    TMP DP  RH WIND       PRES   REMARKS
CHICAGO-OHARE  CLOUDY    58  56  93 N8        29.98S FOG
CHICAGO-MIDWAY MOCLDY    62  61  96 N5        29.98R FOG
AURORA         FOG       62  62 100 N7        29.98S VSB 1/2
LANSING*       FAIR      62  62 100 CALM      29.98S FOG
JOLIET*        FOG       64  64 100 CALM      29.98R VSB 1/2
WAUKEGAN       FOG       50  50 100 NE5       29.99F VSB 1/4
DUPAGE AIRPORT CLOUDY    61  61 100 NE5       29.98R FOG
KANKAKEE*      MOCLDY    67  66  97 CALM      29.99R FOG
WHEELING       CLOUDY    55  54  96 NE6       30.00S FOG
MORRIS*        FAIR      67  65  94 CALM      29.96S FOG
ROMEOVILLE*    FOG       62  62 100 NE3       29.98S VSB 1/4
NORTHERLY ISL    N/A     53  51  93 NW8         N/A
$$

LMZ740>746-220300-
SOUTHERN LAKE MICHIGAN

STATION/POSITION SKY/WX   TEMP    WIND        PRES    VSBY  WAVE
                          AIR SEA DIR/SP/G                  HT/PER
                          (F)     (DEG/KT/KT) (MB)    (MI)  (FT/S)
WILMETTE HARBOR            47 46   10/  6/  8   N/A           2/ 3
HARRISON CRIB              51     340/ 12/ 12   N/A
BURNHAM HARBOR             53      10/  5/  9   N/A
CALUMET HARBOR             57     350/  1/  2 1014.8R
BURNS HARBOR               67        CALM     1015.2F
MICHIGAN CITY 6N           60 53   90/  4/  6   N/A           1
ST. JOSEPH                 59 53  130/ 12/ 16 1015.5          1
$$

ILZ025>027-034>036-040-047-049-050-058-095>099-220300-
WEST-CENTRAL ILLINOIS

CITY           SKY/WX    TMP DP  RH WIND       PRES   REMARKS
QUINCY         MOCLDY    73  63  70 SW3       29.97S
GALESBURG*     CLOUDY    68  61  77 W3        29.98S
MACOMB*        MOCLDY    70  64  83 NW3       29.99S
JACKSONVILLE*  CLEAR     72  65  80 CALM      29.97S
PITTSFIELD*    CLEAR     71  66  85 CALM      29.99S
$$

ILZ028>032-037-038-041>044-048-051>054-059>061-220300-
CENTRAL ILLINOIS

CITY           SKY/WX    TMP DP  RH WIND       PRES   REMARKS
PONTIAC        MOCLDY    69  69  98 SE7       29.97F
BLOOMINGTON    FAIR      67  63  87 S7        29.98F
DECATUR        FAIR      70  66  87 S7        29.99S
PEORIA         MOCLDY    73  64  73 W8        29.96S
LACON*         CLOUDY    68  67  98 CALM      29.95R
LINCOLN*       FAIR      73  65  77 CALM      29.97S
SPRINGFIELD    FAIR      72  68  87 S7        29.98R
TAYLORVILLE    FAIR      69  67  93 S6        30.00R
$$

ILZ033-039-045-046-055>057-062-063-220300-
EAST-CENTRAL ILLINOIS

CITY           SKY/WX    TMP DP  RH WIND       PRES   REMARKS
CHAMPAIGN      FAIR      70  64  81 S7        29.99S
DANVILLE*      FAIR      71  67  87 S6        29.97R
RANTOUL*       FAIR      74  67  79 SW5       29.99R
MATTOON        FAIR      72  68  87 S6        30.00R
PARIS*         FAIR      69  67  94 SW5       30.02R
$$

ILZ079-100>102-220300-
SOUTHWEST ILLINOIS

CITY           SKY/WX    TMP DP  RH WIND       PRES   REMARKS
ALTON          PTCLDY    70  66  88 SE6       29.98S
BELLEVILLE     CLEAR     72  69  90 CALM      29.97S
CAHOKIA*       LGT RAIN  72  68  87 CALM      29.98R
SPARTA*        CLEAR     73  71  92 S3        30.01R
$$

ILZ064>066-069>071-074>076-080>082-084>086-088>090-092>094-220300-
SOUTH-CENTRAL ILLINOIS

CITY           SKY/WX    TMP DP  RH WIND       PRES   REMARKS
CARBONDALE     FAIR      72  68  87 S5        30.00R
CAIRO*         FAIR      74  72  92 CALM      30.02R
EFFINGHAM*     FAIR      71  70  98 CALM      30.02R
MARION         FAIR      70  70  99 CALM      30.02R
CENTRALIA*     PTCLDY    73  70  91 SE3       29.99S
SALEM*         FAIR      73  68  85 CALM      30.00S
$$

ILZ067-068-072-073-078-083-087-091-220300-
SOUTHEAST ILLINOIS

CITY           SKY/WX    TMP DP  RH WIND       PRES   REMARKS
LAWRENCEVILLE  FAIR      73  69  87 SE6       30.01S
FLORA*         FAIR      72  68  86 CALM      30.01R
FAIRFIELD*     FAIR      73  66  81 CALM      30.00S
HARRISBURG*    FAIR      74  71  89 CALM      30.02R
ROBINSON*      FAIR      70  66  87 S7        30.01S
CARMI*         FAIR      74  70  89 SE5       30.00S
$$

ABBREVIATIONS USED IN REMARKS
   TC - TEMPERATURE IN CELSIUS
  WCI - WIND CHILL INDEX
   HX - HEAT INDEX
  VSB - VISIBILITY
$$





USA.gov is the U.S. government's official web portal to all federal, state and local government web resources and services.